TimeCDT,TemperatureF,Dew PointF,Humidity,Sea Level PressureIn,VisibilityMPH,Wind Direction,Wind SpeedMPH,Gust SpeedMPH,PrecipitationIn,Events,Conditions,WindDirDegrees,DateUTC
12:15 AM,50.2,33.3,52,29.72,10.0,WNW,19.6,28.8,N/A,,Scattered Clouds,290,2011-10-15 05:15:00
12:35 AM,49.5,32.9,53,29.73,10.0,WNW,17.3,26.5,N/A,,Scattered Clouds,290,2011-10-15 05:35:00
12:55 AM,49.1,32.9,54,29.73,10.0,West,15.0,23.0,N/A,,Scattered Clouds,280,2011-10-15 05:55:00
1:15 AM,49.1,33.3,54,29.73,10.0,West,16.1,23.0,N/A,,Scattered Clouds,280,2011-10-15 06:15:00
1:35 AM,48.6,33.3,56,29.73,10.0,WNW,12.7,26.5,N/A,,Scattered Clouds,290,2011-10-15 06:35:00
4:15 AM,45.9,35.2,66,29.76,10.0,West,6.9,-,N/A,,Clear,260,2011-10-15 09:15:00
4:55 AM,44.8,36.7,73,29.76,10.0,West,10.4,-,N/A,,Clear,260,2011-10-15 09:55:00
5:15 AM,44.6,37.0,75,29.77,10.0,West,9.2,-,N/A,,Clear,260,2011-10-15 10:15:00
5:35 AM,44.2,37.2,76,29.78,10.0,West,8.1,-,N/A,,Clear,260,2011-10-15 10:35:00
7:35 AM,44.1,37.8,78,29.80,10.0,West,12.7,-,N/A,,Scattered Clouds,270,2011-10-15 12:35:00
8:15 AM,45.1,38.1,76,29.81,10.0,West,10.4,-,N/A,,Clear,270,2011-10-15 13:15:00
8:35 AM,45.9,38.1,74,29.81,10.0,West,13.8,20.7,N/A,,Clear,280,2011-10-15 13:35:00
8:55 AM,46.8,38.3,72,29.82,10.0,West,16.1,20.7,N/A,,Clear,280,2011-10-15 13:55:00
9:15 AM,47.7,38.3,70,29.82,10.0,West,11.5,19.6,N/A,,Scattered Clouds,280,2011-10-15 14:15:00
9:55 AM,48.9,38.1,66,29.83,10.0,West,12.7,18.4,N/A,,Mostly Cloudy,280,2011-10-15 14:55:00
10:15 AM,49.8,37.4,62,29.83,10.0,WNW,12.7,19.6,N/A,,Scattered Clouds,300,2011-10-15 15:15:00
10:35 AM,51.1,36.9,58,29.83,10.0,West,13.8,20.7,N/A,,Scattered Clouds,280,2011-10-15 15:35:00
11:15 AM,52.3,35.6,53,29.83,10.0,West,19.6,26.5,N/A,,Scattered Clouds,280,2011-10-15 16:15:00
11:35 AM,53.6,35.4,50,29.83,10.0,West,17.3,25.3,N/A,,Scattered Clouds,270,2011-10-15 16:35:00
11:55 AM,54.0,34.7,48,29.82,10.0,West,19.6,29.9,N/A,,Scattered Clouds,270,2011-10-15 16:55:00
2:15 PM,58.3,32.9,38,29.80,10.0,West,18.4,28.8,N/A,,Mostly Cloudy,260,2011-10-15 19:15:00
2:35 PM,57.6,33.1,40,29.80,10.0,West,15.0,25.3,N/A,,Scattered Clouds,260,2011-10-15 19:35:00
2:55 PM,58.6,32.9,38,29.80,10.0,WNW,19.6,31.1,N/A,,Scattered Clouds,290,2011-10-15 19:55:00
3:15 PM,58.5,32.4,37,29.80,10.0,West,19.6,27.6,N/A,,Clear,280,2011-10-15 20:15:00
3:35 PM,58.8,32.7,37,29.79,10.0,WSW,13.8,21.9,N/A,,Scattered Clouds,250,2011-10-15 20:35:00
3:55 PM,59.0,32.5,37,29.80,10.0,West,12.7,26.5,N/A,,Scattered Clouds,270,2011-10-15 20:55:00
4:15 PM,58.8,32.0,36,29.79,10.0,West,16.1,26.5,N/A,,Clear,270,2011-10-15 21:15:00
4:35 PM,58.5,31.5,36,29.79,10.0,West,15.0,25.3,N/A,,Clear,270,2011-10-15 21:35:00
4:55 PM,58.5,31.3,36,29.80,10.0,West,15.0,21.9,N/A,,Clear,270,2011-10-15 21:55:00
5:35 PM,56.8,31.3,38,29.79,10.0,West,13.8,21.9,N/A,,Clear,280,2011-10-15 22:35:00
5:55 PM,56.1,31.6,39,29.79,10.0,West,11.5,-,N/A,,Clear,270,2011-10-15 22:55:00
6:15 PM,55.8,31.8,40,29.79,10.0,West,6.9,-,N/A,,Clear,270,2011-10-15 23:15:00
6:35 PM,55.0,32.0,42,29.79,10.0,West,8.1,-,N/A,,Clear,270,2011-10-15 23:35:00
7:15 PM,53.4,32.2,44,29.81,10.0,West,4.6,-,N/A,,Clear,260,2011-10-16 00:15:00
7:35 PM,53.8,32.2,44,29.82,10.0,West,5.8,-,N/A,,Clear,260,2011-10-16 00:35:00
7:55 PM,54.1,32.2,43,29.81,10.0,West,6.9,-,N/A,,Scattered Clouds,260,2011-10-16 00:55:00
8:15 PM,54.3,32.4,43,29.82,10.0,West,5.8,-,N/A,,Scattered Clouds,260,2011-10-16 01:15:00
8:35 PM,54.5,33.1,44,29.82,10.0,West,6.9,-,N/A,,Mostly Cloudy,260,2011-10-16 01:35:00
8:55 PM,54.7,33.3,44,29.82,10.0,West,9.2,-,N/A,,Overcast,260,2011-10-16 01:55:00
9:15 PM,55.2,33.3,43,29.82,10.0,West,8.1,-,N/A,,Overcast,260,2011-10-16 02:15:00
9:35 PM,55.0,33.6,44,29.83,10.0,WSW,5.8,-,N/A,,Overcast,250,2011-10-16 02:35:00
9:55 PM,55.0,34.0,45,29.84,10.0,West,6.9,-,N/A,,Overcast,260,2011-10-16 02:55:00
10:15 PM,55.0,34.0,45,29.84,10.0,WSW,6.9,-,N/A,,Overcast,250,2011-10-16 03:15:00
10:35 PM,54.5,34.2,46,29.83,10.0,WSW,5.8,16.1,N/A,,Overcast,250,2011-10-16 03:35:00
10:55 PM,54.0,34.7,48,29.83,10.0,WNW,8.1,-,N/A,Rain,Light Rain,290,2011-10-16 03:55:00
11:15 PM,53.2,36.3,53,29.83,10.0,NW,10.4,18.4,N/A,Rain,Light Rain,320,2011-10-16 04:15:00
11:35 PM,52.9,34.3,49,29.82,10.0,WNW,8.1,-,N/A,,Overcast,290,2011-10-16 04:35:00